Location: York
(31.8935°S, 116.7682°E)
Time: 17:49:21
(UTC+08:00)

Hubble Space Telescope - Pass Details

Date: 20 May 2021
Orbit: 535 x 539 km, 28.5° (Epoch: 17 June)

Event Time Altitude Azimuth Distance (km) Brightness Sun altitude
Rises 18:44:49 0° 280° (W) 2,688 6.1 -17.7°
Reaches altitude 10° 18:47:07 10° 284° (WNW) 1,798 4.7 -18.2°
Maximum altitude 18:51:11 53° 1° (N) 666 1.2 -19.0°
Enters shadow 18:52:24 38° 54° (NE) 834 1.4 -19.3°
